| time (UTC) | temp F | wind direction | speed MPH | gust MPH | rain 1hr in | rain 24hr in | rain mn in | humidity % | barometer mb |
| 20260831223041 | 70 | 56 | 1.0 | 11.0 | 0.00 | 0.00 | 0.00 | 62 | 1012.6 |
| 20260831221541 | 70 | 112 | 1.0 | 7.0 | 0.00 | 0.00 | 0.00 | 61 | 1012.8 |
| 20260831220048 | 71 | 175 | 2.0 | 11.0 | 0.00 | 0.00 | 0.00 | 60 | 1012.9 |
| 20260831214545 | 71 | 196 | 2.0 | 7.0 | 0.00 | 0.00 | 0.00 | 60 | 1013.0 |
| 20260831213040 | 71 | 184 | 2.0 | 9.0 | 0.00 | 0.00 | 0.00 | 61 | 1013.1 |
| 20260831211539 | 71 | 194 | 1.0 | 10.0 | 0.00 | 0.00 | 0.00 | 61 | 1013.2 |
| 20260831210047 | 72 | 228 | 0.0 | 9.0 | 0.00 | 0.00 | 0.00 | 61 | 1013.2 |
| 20260831204537 | 72 | 181 | 3.0 | 9.0 | 0.00 | 0.00 | 0.00 | 62 | 1013.2 |
| 20260831203032 | 70 | 223 | 1.0 | 10.0 | 0.00 | 0.00 | 0.00 | 63 | 1013.4 |
| 20260831201539 | 69 | 171 | 1.0 | 7.0 | 0.00 | 0.00 | 0.00 | 66 | 1013.5 |
| 20260831200035 | 68 | 121 | 0.0 | 7.0 | 0.00 | 0.00 | 0.00 | 67 | 1013.6 |
| 20260831194540 | 66 | 188 | 0.0 | 8.0 | 0.00 | 0.00 | 0.00 | 69 | 1013.7 |
| 20260831193025 | 65 | 207 | 0.0 | 4.0 | 0.00 | 0.00 | 0.00 | 73 | 1013.9 |
| 20260831191516 | 63 | 140 | 0.0 | 6.0 | 0.00 | 0.00 | 0.00 | 76 | 1014.1 |
| 20260831190012 | 62 | 63 | 0.0 | 0.0 | 0.00 | 0.00 | 0.00 | 79 | 1014.2 |
| 20260831184518 | 60 | 198 | 0.0 | 5.0 | 0.00 | 0.00 | 0.00 | 82 | 1014.4 |
| 20260831183004 | 59 | 86 | 0.0 | 4.0 | 0.00 | 0.00 | 0.00 | 84 | 1014.4 |
| 20260831181501 | 58 | 178 | 0.0 | 0.0 | 0.00 | 0.00 | 0.00 | 85 | 1014.5 |
| 20260831180101 | 57 | 178 | 0.0 | 0.0 | 0.00 | 0.00 | 0.00 | 87 | 1014.4 |
| 20260831174607 | 56 | 284 | 0.0 | 0.0 | 0.00 | 0.00 | 0.00 | 88 | 1014.3 |
| 20260831173101 | 55 | 269 | 0.0 | 0.0 | 0.00 | 0.00 | 0.00 | 90 | 1014.3 |
| 20260831171549 | 54 | 269 | 0.0 | 2.0 | 0.00 | 0.00 | 0.00 | 90 | 1014.1 |
| 20260831170052 | 53 | 184 | 0.0 | 3.0 | 0.00 | 0.00 | 0.00 | 90 | 1014.1 |
| 20260831164542 | 52 | 194 | 0.0 | 0.0 | 0.00 | 0.00 | 0.00 | 90 | 1013.9 |
| 20260831163049 | 51 | 194 | 0.0 | 0.0 | 0.00 | 0.00 | 0.00 | 90 | 1014.0 |
| 20260831161541 | 51 | 194 | 0.0 | 0.0 | 0.00 | 0.00 | 0.00 | 91 | 1013.9 |
| 20260831160045 | 51 | 194 | 0.0 | 0.0 | 0.00 | 0.00 | 0.00 | 91 | 1014.0 |
| 20260831154539 | 51 | 194 | 0.0 | 0.0 | 0.00 | 0.00 | 0.00 | 91 | 1013.7 |
| 20260831153042 | 51 | 194 | 0.0 | 0.0 | 0.00 | 0.00 | 0.00 | 91 | 1013.5 |
| 20260831151539 | 51 | 194 | 0.0 | 0.0 | 0.00 | 0.00 | 0.00 | 91 | 1013.5 |
| 20260831150034 | 51 | 194 | 0.0 | 0.0 | 0.00 | 0.00 | 0.00 | 91 | 1013.3 |
| 20260831144548 | 51 | 194 | 0.0 | 0.0 | 0.00 | 0.00 | 0.00 | 91 | 1013.2 |
| 20260831143041 | 51 | 194 | 0.0 | 0.0 | 0.00 | 0.00 | 0.00 | 91 | 1013.0 |
| 20260831141529 | 51 | 194 | 0.0 | 0.0 | 0.00 | 0.00 | 0.00 | 91 | 1012.8 |
| 20260831140028 | 51 | 194 | 0.0 | 0.0 | 0.00 | 0.00 | 0.00 | 91 | 1012.6 |
| 20260831134527 | 51 | 194 | 0.0 | 0.0 | 0.00 | 0.00 | 0.00 | 91 | 1012.5 |
| 20260831133026 | 51 | 194 | 0.0 | 0.0 | 0.00 | 0.00 | 0.00 | 91 | 1012.4 |
| 20260831131524 | 51 | 194 | 0.0 | 0.0 | 0.00 | 0.00 | 0.00 | 90 | 1012.4 |
| 20260831130024 | 51 | 194 | 0.0 | 0.0 | 0.00 | 0.00 | 0.00 | 90 | 1012.4 |
| 20260831124524 | 51 | 194 | 0.0 | 0.0 | 0.00 | 0.00 | 0.00 | 90 | 1012.4 |
| 20260831123023 | 51 | 194 | 0.0 | 0.0 | 0.00 | 0.00 | 0.00 | 91 | 1012.3 |
| 20260831121532 | 51 | 194 | 0.0 | 0.0 | 0.00 | 0.00 | 0.00 | 91 | 1012.3 |
| 20260831120024 | 51 | 194 | 0.0 | 0.0 | 0.00 | 0.00 | 0.00 | 91 | 1012.4 |
| 20260831114528 | 51 | 194 | 0.0 | 0.0 | 0.00 | 0.00 | 0.00 | 91 | 1012.4 |
| 20260831113021 | 50 | 194 | 0.0 | 0.0 | 0.00 | 0.00 | 0.00 | 91 | 1012.4 |
| 20260831111519 | 50 | 185 | 0.0 | 0.0 | 0.00 | 0.00 | 0.00 | 91 | 1012.2 |
| 20260831110022 | 50 | 203 | 0.0 | 0.0 | 0.00 | 0.00 | 0.00 | 91 | 1012.2 |
| 20260831104517 | 50 | 203 | 0.0 | 0.0 | 0.00 | 0.00 | 0.00 | 91 | 1012.1 |
| 20260831103017 | 50 | 203 | 0.0 | 4.0 | 0.00 | 0.00 | 0.00 | 91 | 1012.1 |
| 20260831101517 | 49 | 215 | 0.0 | 0.0 | 0.00 | 0.00 | 0.00 | 91 | 1012.1 |
| 20260831100015 | 50 | 215 | 0.0 | 0.0 | 0.00 | 0.00 | 0.00 | 91 | 1011.8 |
| 20260831094520 | 50 | 215 | 0.0 | 0.0 | 0.00 | 0.00 | 0.00 | 91 | 1011.8 |
| 20260831093013 | 50 | 215 | 0.0 | 0.0 | 0.00 | 0.00 | 0.00 | 91 | 1011.9 |
| 20260831091511 | 50 | 215 | 0.0 | 0.0 | 0.00 | 0.00 | 0.00 | 91 | 1011.8 |
| 20260831090014 | 50 | 215 | 0.0 | 0.0 | 0.00 | 0.00 | 0.00 | 91 | 1011.8 |
| 20260831084508 | 51 | 215 | 0.0 | 0.0 | 0.00 | 0.00 | 0.00 | 91 | 1011.9 |
| 20260831083007 | 51 | 215 | 0.0 | 0.0 | 0.00 | 0.00 | 0.00 | 91 | 1012.1 |
| 20260831081515 | 51 | 215 | 0.0 | 0.0 | 0.00 | 0.00 | 0.00 | 91 | 1012.0 |
| 20260831080005 | 51 | 215 | 0.0 | 0.0 | 0.00 | 0.00 | 0.00 | 91 | 1012.1 |
| 20260831074515 | 51 | 215 | 0.0 | 0.0 | 0.00 | 0.00 | 0.00 | 91 | 1012.1 |
| 20260831073006 | 51 | 215 | 0.0 | 0.0 | 0.00 | 0.00 | 0.00 | 91 | 1012.2 |
| 20260831071600 | 52 | 215 | 0.0 | 0.0 | 0.00 | 0.00 | 0.00 | 91 | 1012.2 |
| 20260831070059 | 52 | 215 | 0.0 | 0.0 | 0.00 | 0.00 | 0.00 | 91 | 1012.0 |
| 20260831064606 | 52 | 215 | 0.0 | 0.0 | 0.00 | 0.00 | 0.00 | 90 | 1012.1 |
| 20260831063057 | 52 | 215 | 0.0 | 0.0 | 0.00 | 0.00 | 0.00 | 90 | 1012.0 |
| 20260831061556 | 53 | 215 | 0.0 | 0.0 | 0.00 | 0.00 | 0.00 | 90 | 1012.0 |
| 20260831060104 | 53 | 215 | 0.0 | 0.0 | 0.00 | 0.00 | 0.00 | 90 | 1012.0 |
| 20260831054555 | 53 | 215 | 0.0 | 0.0 | 0.00 | 0.00 | 0.00 | 89 | 1011.9 |
| 20260831053055 | 54 | 215 | 0.0 | 1.0 | 0.00 | 0.00 | 0.00 | 89 | 1011.9 |
| 20260831051554 | 54 | 207 | 0.0 | 2.0 | 0.00 | 0.00 | 0.00 | 88 | 1011.9 |
| 20260831050131 | 55 | 209 | 0.0 | 3.0 | 0.00 | 0.00 | 0.00 | 86 | 1011.9 |
| 20260831044554 | 55 | 229 | 0.0 | 1.0 | 0.00 | 0.00 | 0.00 | 85 | 1011.8 |
| 20260831043054 | 56 | 199 | 0.0 | 0.0 | 0.00 | 0.00 | 0.00 | 83 | 1011.7 |
| 20260831041555 | 57 | 196 | 0.0 | 0.0 | 0.00 | 0.00 | 0.00 | 81 | 1011.6 |
| 20260831040054 | 58 | 196 | 0.0 | 0.0 | 0.00 | 0.00 | 0.00 | 80 | 1011.3 |
| 20260831034552 | 58 | 205 | 0.0 | 6.0 | 0.00 | 0.00 | 0.00 | 79 | 1011.2 |
| 20260831033052 | 59 | 197 | 1.0 | 6.0 | 0.00 | 0.00 | 0.00 | 77 | 1011.2 |
| 20260831031554 | 60 | 200 | 0.0 | 4.0 | 0.00 | 0.00 | 0.00 | 75 | 1011.1 |
| 20260831030054 | 61 | 219 | 0.0 | 4.0 | 0.00 | 0.00 | 0.00 | 74 | 1011.0 |
| 20260831024554 | 62 | 184 | 0.0 | 5.0 | 0.00 | 0.00 | 0.00 | 73 | 1011.0 |
| 20260831023050 | 63 | 213 | 1.0 | 8.0 | 0.00 | 0.00 | 0.00 | 70 | 1011.0 |
| 20260831021548 | 65 | 194 | 0.0 | 4.0 | 0.00 | 0.00 | 0.00 | 68 | 1011.0 |
| 20260831020047 | 66 | 196 | 1.0 | 7.0 | 0.00 | 0.00 | 0.00 | 65 | 1011.2 |
| 20260831014550 | 68 | 186 | 0.0 | 3.0 | 0.00 | 0.00 | 0.00 | 63 | 1011.2 |
| 20260831013045 | 69 | 180 | 1.0 | 6.0 | 0.00 | 0.00 | 0.00 | 61 | 1011.3 |
| 20260831011544 | 70 | 174 | 2.0 | 8.0 | 0.00 | 0.00 | 0.00 | 58 | 1011.4 |
| 20260831010043 | 71 | 173 | 2.0 | 6.0 | 0.00 | 0.00 | 0.00 | 56 | 1011.4 |
| 20260831004545 | 73 | 191 | 3.0 | 8.0 | 0.00 | 0.00 | 0.00 | 52 | 1011.4 |
| 20260831003041 | 74 | 180 | 1.0 | 5.0 | 0.00 | 0.00 | 0.00 | 50 | 1011.4 |
| 20260831001540 | 76 | 175 | 2.0 | 8.0 | 0.00 | 0.00 | 0.00 | 48 | 1011.5 |
| 20260831000053 | 77 | 178 | 2.0 | 5.0 | 0.00 | 0.00 | 0.00 | 47 | 1011.7 |
| 20260830234546 | 77 | 153 | 4.0 | 10.0 | 0.00 | 0.00 | 0.00 | 46 | 1011.7 |
| 20260830233053 | 78 | 174 | 3.0 | 8.0 | 0.00 | 0.00 | 0.00 | 45 | 1011.7 |
| 20260830231537 | 79 | 167 | 4.0 | 9.0 | 0.00 | 0.00 | 0.00 | 43 | 1011.8 |
| 20260830230034 | 80 | 199 | 3.0 | 6.0 | 0.00 | 0.00 | 0.00 | 43 | 1011.8 |
| 20260830224533 | 80 | 137 | 2.0 | 9.0 | 0.00 | 0.00 | 0.00 | 44 | 1012.0 |